timestamp,surface_pressure_avg,surface_temp_avg,battery_voltage,lat,long
2019-01-12 00:00:00+00:00,272.3397,1.4,12.65,47.84626,-54.09684
2019-01-12 00:10:00+00:00,283.4847,1.4,12.65,47.84626,-54.09684
2019-01-12 00:20:00+00:00,280.7864,1.4,12.73,47.84626,-54.09684
2019-01-12 00:30:00+00:00,273.5281,1.4,12.73,47.84626,-54.09684
2019-01-12 00:40:00+00:00,280.988,1.4,12.73,47.84626,-54.09684
2019-01-12 00:50:00+00:00,289.7564,1.4,12.73,47.84626,-54.09684
2019-01-12 01:00:00+00:00,285.3381,1.4,12.65,47.84626,-54.09684
2019-01-12 01:10:00+00:00,287.4264,1.4,12.65,47.84626,-54.09684
2019-01-12 01:20:00+00:00,298.7247,1.4,12.73,47.84626,-54.09684
2019-01-12 01:30:00+00:00,301.008,1.4,12.73,47.84626,-54.09684
2019-01-12 01:40:00+00:00,296.0614,1.4,12.73,47.84626,-54.09684
2019-01-12 01:50:00+00:00,305.4747,1.4,12.73,47.84626,-54.09684
2019-01-12 02:00:00+00:00,313.5547,1.4,12.65,47.84626,-54.09684
2019-01-12 02:10:00+00:00,308.7396,1.48,12.65,47.84626,-54.09684
2019-01-12 02:20:00+00:00,311.408,1.5,12.73,47.84626,-54.09684
2019-01-12 02:30:00+00:00,318.3663,1.5,12.73,47.84626,-54.09684
2019-01-12 02:40:00+00:00,320.1647,1.5,12.73,47.84626,-54.09684
2019-01-12 02:50:00+00:00,316.5779,1.45,12.73,47.84626,-54.09684
2019-01-12 03:00:00+00:00,324.3997,1.4,12.65,47.84626,-54.09684
2019-01-12 03:10:00+00:00,334.8263,1.41,12.65,47.84626,-54.09684
2019-01-12 03:20:00+00:00,337.5563,1.43,12.73,47.84626,-54.09684
2019-01-12 03:30:00+00:00,335.8181,1.45,12.73,47.84626,-54.09684
2019-01-12 03:40:00+00:00,339.5547,1.46,12.73,47.84626,-54.09684
2019-01-12 03:50:00+00:00,338.8363,1.45,12.73,47.84626,-54.09684
2019-01-12 04:00:00+00:00,340.5196,1.42,12.65,47.84626,-54.09684
2019-01-12 04:10:00+00:00,345.7097,1.44,12.65,47.84626,-54.09684
2019-01-12 04:20:00+00:00,342.713,1.47,12.73,47.84626,-54.09684
2019-01-12 04:30:00+00:00,339.5663,1.47,12.73,47.84626,-54.09684
2019-01-12 04:40:00+00:00,339.3363,1.47,12.73,47.84626,-54.09684
2019-01-12 04:50:00+00:00,333.3729,1.45,12.73,47.84626,-54.09684
2019-01-12 05:00:00+00:00,328.6313,1.43,12.65,47.84626,-54.09684
2019-01-12 05:10:00+00:00,330.363,1.44,12.65,47.84626,-54.09684
2019-01-12 05:20:00+00:00,330.1013,1.44,12.73,47.84626,-54.09684
2019-01-12 05:30:00+00:00,315.0114,1.4,12.73,47.84626,-54.09684
2019-01-12 05:40:00+00:00,308.613,1.42,12.73,47.84626,-54.09684
2019-01-12 05:50:00+00:00,311.6447,1.42,12.73,47.84626,-54.09684
2019-01-12 06:00:00+00:00,304.038,1.41,12.65,47.84626,-54.09684
2019-01-12 06:10:00+00:00,288.7663,1.4,12.65,47.84626,-54.09684
2019-01-12 06:20:00+00:00,287.353,1.4,12.73,47.84626,-54.09684
2019-01-12 06:30:00+00:00,290.598,1.4,12.73,47.84626,-54.09684
2019-01-12 06:40:00+00:00,277.813,1.3,12.73,47.84626,-54.09684
2019-01-12 06:50:00+00:00,262.1581,1.28,12.73,47.84626,-54.09684
2019-01-12 07:00:00+00:00,263.4781,1.24,12.65,47.84626,-54.09684
2019-01-12 07:10:00+00:00,263.8214,1.22,12.65,47.84626,-54.09684
2019-01-12 07:20:00+00:00,252.4497,1.2,12.73,47.84626,-54.09684
2019-01-12 07:30:00+00:00,244.3848,1.2,12.73,47.84626,-54.09684
2019-01-12 07:40:00+00:00,238.8665,1.2,12.73,47.84626,-54.09684
2019-01-12 07:50:00+00:00,234.0997,1.2,12.73,47.84626,-54.09684
2019-01-12 08:00:00+00:00,230.088,1.2,12.65,47.84626,-54.09684
2019-01-12 08:10:00+00:00,226.8282,1.2,12.65,47.84626,-54.09684
2019-01-12 08:20:00+00:00,221.2998,1.2,12.73,47.84626,-54.09684
2019-01-12 08:30:00+00:00,219.8198,1.2,12.73,47.84626,-54.09684
2019-01-12 08:40:00+00:00,218.0981,1.2,12.73,47.84626,-54.09684
2019-01-12 08:50:00+00:00,213.2698,1.2,12.73,47.84626,-54.09684
2019-01-12 09:00:00+00:00,210.4981,1.19,12.65,47.84626,-54.09684
2019-01-12 09:10:00+00:00,212.3664,1.19,12.65,47.84626,-54.09684
2019-01-12 09:20:00+00:00,210.6348,1.2,12.73,47.84626,-54.09684
2019-01-12 09:30:00+00:00,206.4764,1.2,12.73,47.84626,-54.09684
2019-01-12 09:40:00+00:00,212.4998,1.2,12.73,47.84626,-54.09684
2019-01-12 09:50:00+00:00,221.7881,1.2,12.73,47.84626,-54.09684
2019-01-12 10:00:00+00:00,223.6764,1.2,12.65,47.84626,-54.09684
2019-01-12 10:10:00+00:00,225.4297,1.23,12.65,47.84626,-54.09684
2019-01-12 10:20:00+00:00,238.1681,1.24,12.73,47.84626,-54.09684
2019-01-12 10:30:00+00:00,246.8814,1.25,12.73,47.84626,-54.09684
2019-01-12 10:40:00+00:00,244.2631,1.24,12.73,47.84626,-54.09684
2019-01-12 10:50:00+00:00,248.1248,1.2,12.73,47.84626,-54.09684
2019-01-12 11:00:00+00:00,257.3431,1.2,12.65,47.84626,-54.09684
2019-01-12 11:10:00+00:00,258.3631,1.23,12.65,47.84626,-54.09684
2019-01-12 11:20:00+00:00,258.2747,1.25,12.73,47.84626,-54.09684
2019-01-12 11:30:00+00:00,265.3647,1.27,12.73,47.84626,-54.09684
2019-01-12 11:40:00+00:00,270.8414,1.27,12.73,47.84626,-54.09684
2019-01-12 11:50:00+00:00,267.9714,1.25,12.81,47.84626,-54.09684
2019-01-12 12:00:00+00:00,269.0914,1.24,12.65,47.84626,-54.09684
2019-01-12 12:10:00+00:00,271.873,1.24,12.65,47.84626,-54.09684
2019-01-12 12:20:00+00:00,272.0131,1.25,12.73,47.84626,-54.09684
2019-01-12 12:30:00+00:00,270.2498,1.27,12.73,47.84626,-54.09684
2019-01-12 12:40:00+00:00,276.3014,1.27,12.81,47.84626,-54.09684
2019-01-12 12:50:00+00:00,282.9397,1.27,12.89,47.84626,-54.09684
2019-01-12 13:00:00+00:00,283.9297,1.29,12.81,47.84626,-54.09684
2019-01-12 13:10:00+00:00,283.6814,1.29,12.81,47.84626,-54.09684
2019-01-12 13:20:00+00:00,290.5497,1.29,12.97,47.84626,-54.09684
2019-01-12 13:30:00+00:00,300.6097,1.29,13.13,47.84626,-54.09684
2019-01-12 13:40:00+00:00,306.0447,1.29,13.44,47.84626,-54.09684
2019-01-12 13:50:00+00:00,306.348,1.3,13.53,47.84626,-54.09684
2019-01-12 14:00:00+00:00,313.4547,1.3,14.0,47.84626,-54.09684
2019-01-12 14:10:00+00:00,318.8879,1.3,14.48,47.84626,-54.09684
2019-01-12 14:20:00+00:00,323.9046,1.3,13.68,47.84626,-54.09684
2019-01-12 14:30:00+00:00,327.3464,1.3,13.68,47.84626,-54.09684
2019-01-12 14:40:00+00:00,333.3947,1.3,13.92,47.84626,-54.09684
2019-01-12 14:50:00+00:00,334.6945,1.3,13.6,47.84626,-54.09684
2019-01-12 15:00:00+00:00,338.1796,1.3,13.44,47.84626,-54.09684
2019-01-12 15:10:00+00:00,345.4613,1.3,13.37,47.84626,-54.09684
2019-01-12 15:20:00+00:00,347.7613,1.3,13.44,47.84626,-54.09684
2019-01-12 15:30:00+00:00,345.8863,1.3,13.44,47.84626,-54.09684
2019-01-12 15:40:00+00:00,346.6863,1.3,13.6,47.84626,-54.09684
2019-01-12 15:50:00+00:00,349.2797,1.3,13.6,47.84626,-54.09684
2019-01-12 16:00:00+00:00,347.3796,1.3,13.76,47.84626,-54.09684
2019-01-12 16:10:00+00:00,343.6013,1.3,13.68,47.84626,-54.09684
2019-01-12 16:20:00+00:00,341.353,1.31,13.68,47.84626,-54.09684
2019-01-12 16:30:00+00:00,339.4979,1.32,13.68,47.84626,-54.09684
2019-01-12 16:40:00+00:00,338.0163,1.31,13.6,47.84626,-54.09684
2019-01-12 16:50:00+00:00,334.1946,1.3,13.6,47.84626,-54.09684
2019-01-12 17:00:00+00:00,330.7013,1.3,13.68,47.84626,-54.09684
2019-01-12 17:10:00+00:00,327.7746,1.32,13.44,47.84626,-54.09684
2019-01-12 17:20:00+00:00,325.5197,1.32,13.44,47.84626,-54.09684
2019-01-12 17:30:00+00:00,319.5013,1.33,13.37,47.84626,-54.09684
2019-01-12 17:40:00+00:00,312.7546,1.33,13.53,47.84626,-54.09684
2019-01-12 17:50:00+00:00,309.6864,1.34,13.53,47.84626,-54.09684
2019-01-12 18:00:00+00:00,306.0097,1.32,13.44,47.84626,-54.09684
2019-01-12 18:10:00+00:00,296.4813,1.31,13.29,47.84626,-54.09684
2019-01-12 18:20:00+00:00,291.3247,1.32,13.37,47.84626,-54.09684
2019-01-12 18:30:00+00:00,289.868,1.32,13.68,47.84626,-54.09684
2019-01-12 18:40:00+00:00,279.938,1.33,13.76,47.84626,-54.09684
2019-01-12 18:50:00+00:00,270.7014,1.32,13.6,47.84626,-54.09684
2019-01-12 19:00:00+00:00,269.1397,1.31,13.44,47.84626,-54.09684
2019-01-12 19:10:00+00:00,266.3331,1.3,13.29,47.84626,-54.09684
2019-01-12 19:20:00+00:00,255.6864,1.3,13.29,47.84626,-54.09684
2019-01-12 19:30:00+00:00,246.1264,1.3,13.29,47.84626,-54.09684
2019-01-12 19:40:00+00:00,241.6847,1.3,13.29,47.84626,-54.09684
2019-01-12 19:50:00+00:00,237.0064,1.3,13.29,47.84626,-54.09684
2019-01-12 20:00:00+00:00,232.1931,1.3,13.13,47.84626,-54.09684
2019-01-12 20:10:00+00:00,227.7097,1.3,13.05,47.84626,-54.09684
2019-01-12 20:20:00+00:00,225.9247,1.3,13.13,47.84626,-54.09684
2019-01-12 20:30:00+00:00,221.8264,1.3,13.13,47.84626,-54.09684
2019-01-12 20:40:00+00:00,218.1331,1.3,13.21,47.84626,-54.09684
2019-01-12 20:50:00+00:00,217.0048,1.3,13.21,47.84626,-54.09684
2019-01-12 21:00:00+00:00,215.6398,1.3,13.05,47.84626,-54.09684
2019-01-12 21:10:00+00:00,213.7714,1.29,13.05,47.84626,-54.09684
2019-01-12 21:20:00+00:00,213.7348,1.2,13.13,47.84626,-54.09684
2019-01-12 21:30:00+00:00,215.4331,1.2,13.13,47.84626,-54.09684
2019-01-12 21:40:00+00:00,216.1131,1.19,13.13,47.84626,-54.09684
2019-01-12 21:50:00+00:00,218.6415,1.19,13.13,47.84626,-54.09684
2019-01-12 22:00:00+00:00,222.8131,1.19,13.05,47.84626,-54.09684
2019-01-12 22:10:00+00:00,224.9447,1.19,12.97,47.84626,-54.09684
2019-01-12 22:20:00+00:00,226.2764,1.19,13.05,47.84626,-54.09684
2019-01-12 22:30:00+00:00,231.6298,1.19,13.05,47.84626,-54.09684
2019-01-12 22:40:00+00:00,238.553,1.19,13.05,47.84626,-54.09684
2019-01-12 22:50:00+00:00,243.3648,1.18,13.05,47.84626,-54.09684
2019-01-12 23:00:00+00:00,247.1331,1.19,13.05,47.84626,-54.09684
2019-01-12 23:10:00+00:00,250.2981,1.19,12.97,47.84626,-54.09684
2019-01-12 23:20:00+00:00,255.5397,1.2,13.05,47.84626,-54.09684
2019-01-12 23:30:00+00:00,257.4615,1.2,13.05,47.84626,-54.09684
2019-01-12 23:40:00+00:00,258.4364,1.19,13.05,47.84626,-54.09684
2019-01-12 23:50:00+00:00,259.3514,1.19,13.05,47.84626,-54.09684
